﻿測定場所 (Monitoring sites),日付 (Measurement date),時間 (Measurement time),線量率 最大値 (max) μGy/h,線量率 最小値 (min) μGy/h,線量率 平均値 (average) μGy/h,
江戸川 (Edogawa),2014-02-09,23:01～24:00,0.0593,0.0524,0.0558,
江戸川 (Edogawa),2014-02-09,22:01～23:00,0.0600,0.0528,0.0556,
江戸川 (Edogawa),2014-02-09,21:01～22:00,0.0583,0.0526,0.0554,
江戸川 (Edogawa),2014-02-09,20:01～21:00,0.0576,0.0514,0.0548,
江戸川 (Edogawa),2014-02-09,19:01～20:00,0.0580,0.0504,0.0539,
江戸川 (Edogawa),2014-02-09,18:01～19:00,0.0566,0.0503,0.0537,
江戸川 (Edogawa),2014-02-09,17:01～18:00,0.0556,0.0498,0.0529,
江戸川 (Edogawa),2014-02-09,16:01～17:00,0.0568,0.0494,0.0525,
江戸川 (Edogawa),2014-02-09,15:01～16:00,0.0552,0.0486,0.0519,
江戸川 (Edogawa),2014-02-09,14:01～15:00,0.0531,0.0464,0.0499,
江戸川 (Edogawa),2014-02-09,13:01～14:00,0.0524,0.0465,0.0496,
江戸川 (Edogawa),2014-02-09,12:01～13:00,0.0515,0.0471,0.0494,
江戸川 (Edogawa),2014-02-09,11:01～12:00,0.0519,0.0450,0.0486,
江戸川 (Edogawa),2014-02-09,10:01～11:00,0.0511,0.0437,0.0474,
江戸川 (Edogawa),2014-02-09,09:01～10:00,0.0502,0.0437,0.0466,
江戸川 (Edogawa),2014-02-09,08:01～09:00,0.0493,0.0431,0.0461,
江戸川 (Edogawa),2014-02-09,07:01～08:00,0.0493,0.0430,0.0461,
江戸川 (Edogawa),2014-02-09,06:01～07:00,0.0490,0.0427,0.0462,
江戸川 (Edogawa),2014-02-09,05:01～06:00,0.0487,0.0439,0.0459,
江戸川 (Edogawa),2014-02-09,04:01～05:00,0.0493,0.0441,0.0466,
江戸川 (Edogawa),2014-02-09,03:01～04:00,0.0503,0.0449,0.0475,
江戸川 (Edogawa),2014-02-09,02:01～03:00,0.0545,0.0466,0.0503,
江戸川 (Edogawa),2014-02-09,01:01～02:00,0.0544,0.0486,0.0523,
江戸川 (Edogawa),2014-02-09,00:01～01:00,0.0562,0.0511,0.0539,
江戸川 (Edogawa),2014-02-08,23:01～24:00,0.0567,0.0512,0.0541,
江戸川 (Edogawa),2014-02-08,22:01～23:00,0.0611,0.0522,0.0559,
江戸川 (Edogawa),2014-02-08,21:01～22:00,0.0638,0.0554,0.0595,
江戸川 (Edogawa),2014-02-08,20:01～21:00,0.0666,0.0580,0.0617,
江戸川 (Edogawa),2014-02-08,19:01～20:00,0.0684,0.0614,0.0638,
江戸川 (Edogawa),2014-02-08,18:01～19:00,0.0713,0.0630,0.0678,
江戸川 (Edogawa),2014-02-08,17:01～18:00,0.0730,0.0644,0.0693,
江戸川 (Edogawa),2014-02-08,16:01～17:00,0.0767,0.0670,0.0702,
江戸川 (Edogawa),2014-02-08,15:01～16:00,0.0751,0.0681,0.0719,
江戸川 (Edogawa),2014-02-08,14:01～15:00,0.0752,0.0683,0.0715,
江戸川 (Edogawa),2014-02-08,13:01～14:00,0.0757,0.0693,0.0720,
江戸川 (Edogawa),2014-02-08,12:01～13:00,0.0815,0.0709,0.0751,
江戸川 (Edogawa),2014-02-08,11:01～12:00,0.0845,0.0725,0.0775,
江戸川 (Edogawa),2014-02-08,10:01～11:00,0.0828,0.0734,0.0777,
江戸川 (Edogawa),2014-02-08,09:01～10:00,0.0855,0.0734,0.0789,
江戸川 (Edogawa),2014-02-08,08:01～09:00,0.0847,0.0737,0.0780,
江戸川 (Edogawa),2014-02-08,07:01～08:00,0.0842,0.0739,0.0785,
江戸川 (Edogawa),2014-02-08,06:01～07:00,0.0844,0.0743,0.0783,
江戸川 (Edogawa),2014-02-08,05:01～06:00,0.0848,0.0733,0.0790,
江戸川 (Edogawa),2014-02-08,04:01～05:00,0.0881,0.0738,0.0804,
江戸川 (Edogawa),2014-02-08,03:01～04:00,0.0856,0.0759,0.0814,
江戸川 (Edogawa),2014-02-08,02:01～03:00,0.0853,0.0731,0.0787,
江戸川 (Edogawa),2014-02-08,01:01～02:00,0.0848,0.0725,0.0770,
江戸川 (Edogawa),2014-02-08,00:01～01:00,0.0820,0.0733,0.0769,
江戸川 (Edogawa),2014-02-07,23:01～24:00,0.0841,0.0730,0.0770,
江戸川 (Edogawa),2014-02-07,22:01～23:00,0.0830,0.0721,0.0766,
江戸川 (Edogawa),2014-02-07,21:01～22:00,0.0838,0.0724,0.0774,
江戸川 (Edogawa),2014-02-07,20:01～21:00,0.0824,0.0711,0.0768,
江戸川 (Edogawa),2014-02-07,19:01～20:00,0.0842,0.0728,0.0765,
江戸川 (Edogawa),2014-02-07,18:01～19:00,0.0830,0.0729,0.0770,
江戸川 (Edogawa),2014-02-07,17:01～18:00,0.0826,0.0729,0.0770,
江戸川 (Edogawa),2014-02-07,16:01～17:00,0.0813,0.0723,0.0768,
江戸川 (Edogawa),2014-02-07,15:01～16:00,0.0848,0.0733,0.0777,
江戸川 (Edogawa),2014-02-07,14:01～15:00,0.0845,0.0727,0.0776,
江戸川 (Edogawa),2014-02-07,13:01～14:00,0.0841,0.0729,0.0777,
江戸川 (Edogawa),2014-02-07,12:01～13:00,0.0831,0.0736,0.0776,
江戸川 (Edogawa),2014-02-07,11:01～12:00,0.0822,0.0728,0.0766,
江戸川 (Edogawa),2014-02-07,10:01～11:00,0.0823,0.0721,0.0768,
江戸川 (Edogawa),2014-02-07,09:01～10:00,0.0826,0.0722,0.0767,
江戸川 (Edogawa),2014-02-07,08:01～09:00,0.0817,0.0726,0.0763,
江戸川 (Edogawa),2014-02-07,07:01～08:00,0.0825,0.0719,0.0762,
江戸川 (Edogawa),2014-02-07,06:01～07:00,0.0821,0.0730,0.0765,
江戸川 (Edogawa),2014-02-07,05:01～06:00,0.0816,0.0730,0.0766,
江戸川 (Edogawa),2014-02-07,04:01～05:00,0.0837,0.0728,0.0765,
江戸川 (Edogawa),2014-02-07,03:01～04:00,0.0829,0.0728,0.0763,
江戸川 (Edogawa),2014-02-07,02:01～03:00,0.0836,0.0704,0.0767,
江戸川 (Edogawa),2014-02-07,01:01～02:00,0.0816,0.0729,0.0768,
江戸川 (Edogawa),2014-02-07,00:01～01:00,0.0842,0.0727,0.0767,
江戸川 (Edogawa),2014-02-06,23:01～24:00,0.0804,0.0723,0.0763,
江戸川 (Edogawa),2014-02-06,22:01～23:00,0.0832,0.0713,0.0771,
江戸川 (Edogawa),2014-02-06,21:01～22:00,0.0831,0.0735,0.0767,
江戸川 (Edogawa),2014-02-06,20:01～21:00,0.0827,0.0715,0.0769,
江戸川 (Edogawa),2014-02-06,19:01～20:00,0.0825,0.0724,0.0765,
江戸川 (Edogawa),2014-02-06,18:01～19:00,0.0823,0.0726,0.0773,
江戸川 (Edogawa),2014-02-06,17:01～18:00,0.0807,0.0722,0.0760,
江戸川 (Edogawa),2014-02-06,16:01～17:00,0.0839,0.0732,0.0767,
江戸川 (Edogawa),2014-02-06,15:01～16:00,0.0819,0.0720,0.0765,
江戸川 (Edogawa),2014-02-06,14:01～15:00,0.0816,0.0723,0.0771,
江戸川 (Edogawa),2014-02-06,13:01～14:00,0.0857,0.0724,0.0767,
江戸川 (Edogawa),2014-02-06,12:01～13:00,0.0829,0.0727,0.0767,
江戸川 (Edogawa),2014-02-06,11:01～12:00,0.0811,0.0717,0.0759,
江戸川 (Edogawa),2014-02-06,10:01～11:00,0.0838,0.0720,0.0765,
江戸川 (Edogawa),2014-02-06,09:01～10:00,0.0791,0.0723,0.0751,
江戸川 (Edogawa),2014-02-06,08:01～09:00,0.0829,0.0725,0.0759,
江戸川 (Edogawa),2014-02-06,07:01～08:00,0.0817,0.0718,0.0756,
江戸川 (Edogawa),2014-02-06,06:01～07:00,0.0811,0.0721,0.0758,
江戸川 (Edogawa),2014-02-06,05:01～06:00,0.0808,0.0721,0.0758,
江戸川 (Edogawa),2014-02-06,04:01～05:00,0.0810,0.0727,0.0756,
江戸川 (Edogawa),2014-02-06,03:01～04:00,0.0792,0.0720,0.0754,
江戸川 (Edogawa),2014-02-06,02:01～03:00,0.0826,0.0721,0.0761,
江戸川 (Edogawa),2014-02-06,01:01～02:00,0.0816,0.0714,0.0760,
江戸川 (Edogawa),2014-02-06,00:01～01:00,0.0803,0.0714,0.0753,
江戸川 (Edogawa),2014-02-05,23:01～24:00,0.0819,0.0709,0.0755,
江戸川 (Edogawa),2014-02-05,22:01～23:00,0.0827,0.0719,0.0760,
江戸川 (Edogawa),2014-02-05,21:01～22:00,0.0805,0.0719,0.0752,
江戸川 (Edogawa),2014-02-05,20:01～21:00,0.0806,0.0724,0.0754,
江戸川 (Edogawa),2014-02-05,19:01～20:00,0.0813,0.0719,0.0756,
江戸川 (Edogawa),2014-02-05,18:01～19:00,0.0816,0.0716,0.0753,
江戸川 (Edogawa),2014-02-05,17:01～18:00,0.0817,0.0716,0.0757,
江戸川 (Edogawa),2014-02-05,16:01～17:00,0.0819,0.0725,0.0759,
江戸川 (Edogawa),2014-02-05,15:01～16:00,0.0808,0.0711,0.0761,
江戸川 (Edogawa),2014-02-05,14:01～15:00,0.0812,0.0715,0.0762,
江戸川 (Edogawa),2014-02-05,13:01～14:00,0.0822,0.0714,0.0760,
江戸川 (Edogawa),2014-02-05,12:01～13:00,0.0832,0.0715,0.0763,
江戸川 (Edogawa),2014-02-05,11:01～12:00,0.0826,0.0718,0.0760,
江戸川 (Edogawa),2014-02-05,10:01～11:00,0.0813,0.0712,0.0758,
江戸川 (Edogawa),2014-02-05,09:01～10:00,0.0809,0.0714,0.0749,
江戸川 (Edogawa),2014-02-05,08:01～09:00,0.0834,0.0703,0.0747,
江戸川 (Edogawa),2014-02-05,07:01～08:00,0.0798,0.0711,0.0742,
江戸川 (Edogawa),2014-02-05,06:01～07:00,0.0810,0.0716,0.0752,
江戸川 (Edogawa),2014-02-05,05:01～06:00,0.0804,0.0689,0.0745,
江戸川 (Edogawa),2014-02-05,04:01～05:00,0.0811,0.0714,0.0750,
江戸川 (Edogawa),2014-02-05,03:01～04:00,0.0796,0.0712,0.0752,
江戸川 (Edogawa),2014-02-05,02:01～03:00,0.0801,0.0720,0.0751,
江戸川 (Edogawa),2014-02-05,01:01～02:00,0.0844,0.0706,0.0748,
江戸川 (Edogawa),2014-02-05,00:01～01:00,0.0789,0.0715,0.0747,
江戸川 (Edogawa),2014-02-04,23:01～24:00,0.0806,0.0699,0.0743,
江戸川 (Edogawa),2014-02-04,22:01～23:00,0.0818,0.0714,0.0746,
江戸川 (Edogawa),2014-02-04,21:01～22:00,0.0854,0.0715,0.0746,
江戸川 (Edogawa),2014-02-04,20:01～21:00,0.0827,0.0712,0.0756,
江戸川 (Edogawa),2014-02-04,19:01～20:00,0.0893,0.0748,0.0803,
江戸川 (Edogawa),2014-02-04,18:01～19:00,0.102,0.0823,0.0917,
江戸川 (Edogawa),2014-02-04,17:01～18:00,0.104,0.0909,0.0990,
江戸川 (Edogawa),2014-02-04,16:01～17:00,0.100,0.0797,0.0913,
江戸川 (Edogawa),2014-02-04,15:01～16:00,0.0924,0.0796,0.0849,
江戸川 (Edogawa),2014-02-04,14:01～15:00,0.0943,0.0816,0.0884,
江戸川 (Edogawa),2014-02-04,13:01～14:00,0.0989,0.0853,0.0913,
江戸川 (Edogawa),2014-02-04,12:01～13:00,0.0975,0.0840,0.0918,
江戸川 (Edogawa),2014-02-04,11:01～12:00,0.0906,0.0754,0.0829,
江戸川 (Edogawa),2014-02-04,10:01～11:00,0.0851,0.0740,0.0802,
江戸川 (Edogawa),2014-02-04,09:01～10:00,0.0869,0.0745,0.0798,
江戸川 (Edogawa),2014-02-04,08:01～09:00,0.0872,0.0742,0.0802,
江戸川 (Edogawa),2014-02-04,07:01～08:00,0.0872,0.0762,0.0808,
江戸川 (Edogawa),2014-02-04,06:01～07:00,0.0878,0.0763,0.0818,
江戸川 (Edogawa),2014-02-04,05:01～06:00,0.0877,0.0757,0.0819,
江戸川 (Edogawa),2014-02-04,04:01～05:00,0.0874,0.0746,0.0811,
江戸川 (Edogawa),2014-02-04,03:01～04:00,0.0863,0.0739,0.0796,
江戸川 (Edogawa),2014-02-04,02:01～03:00,0.0850,0.0741,0.0794,
江戸川 (Edogawa),2014-02-04,01:01～02:00,0.0869,0.0744,0.0805,
江戸川 (Edogawa),2014-02-04,00:01～01:00,0.0895,0.0739,0.0810,
江戸川 (Edogawa),2014-02-03,23:01～24:00,0.0868,0.0742,0.0811,
江戸川 (Edogawa),2014-02-03,22:01～23:00,0.0845,0.0724,0.0795,
江戸川 (Edogawa),2014-02-03,21:01～22:00,0.0847,0.0739,0.0795,
江戸川 (Edogawa),2014-02-03,20:01～21:00,0.0860,0.0740,0.0799,
江戸川 (Edogawa),2014-02-03,19:01～20:00,0.0866,0.0754,0.0796,
江戸川 (Edogawa),2014-02-03,18:01～19:00,0.0849,0.0737,0.0799,
江戸川 (Edogawa),2014-02-03,17:01～18:00,0.0866,0.0757,0.0799,
江戸川 (Edogawa),2014-02-03,16:01～17:00,0.0850,0.0733,0.0808,
江戸川 (Edogawa),2014-02-03,15:01～16:00,0.0857,0.0732,0.0798,
江戸川 (Edogawa),2014-02-03,14:01～15:00,0.0886,0.0735,0.0809,
江戸川 (Edogawa),2014-02-03,13:01～14:00,0.0866,0.0742,0.0812,
江戸川 (Edogawa),2014-02-03,12:01～13:00,0.0900,0.0776,0.0822,
江戸川 (Edogawa),2014-02-03,11:01～12:00,0.0862,0.0755,0.0812,
江戸川 (Edogawa),2014-02-03,10:01～11:00,0.0863,0.0771,0.0808,
江戸川 (Edogawa),2014-02-03,09:01～10:00,0.0873,0.0732,0.0807,
江戸川 (Edogawa),2014-02-03,08:01～09:00,0.0860,0.0757,0.0801,
江戸川 (Edogawa),2014-02-03,07:01～08:00,0.0859,0.0756,0.0799,
江戸川 (Edogawa),2014-02-03,06:01～07:00,0.0863,0.0724,0.0789,
江戸川 (Edogawa),2014-02-03,05:01～06:00,0.0855,0.0744,0.0793,
江戸川 (Edogawa),2014-02-03,04:01～05:00,0.0879,0.0750,0.0798,
江戸川 (Edogawa),2014-02-03,03:01～04:00,0.0838,0.0745,0.0794,
江戸川 (Edogawa),2014-02-03,02:01～03:00,0.0871,0.0729,0.0793,
江戸川 (Edogawa),2014-02-03,01:01～02:00,0.0867,0.0740,0.0799,
江戸川 (Edogawa),2014-02-03,00:01～01:00,0.0855,0.0731,0.0795,
